Add date Part number Description Manufacture PDF
11-13-2014 GC6283 上海国芯 4.6W 双路音频功 Guoxin GC6283 datasheet
11-13-2014 MST6E16GS Liquid Crystal Display Television S Hisense MST6E16GS datasheet
11-13-2014 MST6M16 9M04-12B SPECIFICATION 规格书 PR SINHO TECHNOLOGY MST6M16 datasheet
11-13-2014 DTM4435 P-Channel 30-V (D-S) MOSFET DTM443 Din-Tek DTM4435 datasheet
11-13-2014 UT9435 UNISONIC TECHNOLOGIES CO., LTD UT94 UTC UT9435 datasheet
11-13-2014 2SD2255 Power Transistors 2SD2255 Silicon N Panasonic Semiconductor 2SD2255 datasheet
11-13-2014 D2255 Power Transistors 2SD2255 Silicon N Panasonic Semiconductor D2255 datasheet
11-13-2014 2N5415 Continental Device India Limited An CDIL 2N5415 datasheet
11-13-2014 32LD335 ENGLISH OWNER’S MANUAL LCD TV / LG 32LD335 datasheet
11-13-2014 32LD336 ENGLISH OWNER’S MANUAL LCD TV / LG 32LD336 datasheet
11-13-2014 32LD345 ENGLISH OWNER’S MANUAL LCD TV / LG 32LD345 datasheet
11-13-2014 32LD346 ENGLISH OWNER’S MANUAL LCD TV / LG 32LD346 datasheet
11-13-2014 32LD356 ENGLISH OWNER’S MANUAL LCD TV / LG 32LD356 datasheet
11-13-2014 32LD355 ENGLISH OWNER’S MANUAL LCD TV / LG 32LD355 datasheet
11-13-2014 LTN154AT01-A03 Approval TO : MSI DATE : Apr. 2, 20 Samsung LTN154AT01-A03 datasheet
11-13-2014 STC12C5604 STC12C5620AD series MCU STC12LE5620 STC STC12C5604 datasheet
11-13-2014 STC12C5604AD STC12C5620AD series MCU STC12LE5620 STC STC12C5604AD datasheet
11-13-2014 STC12C5608 STC12C5620AD series MCU STC12LE5620 STC STC12C5608 datasheet
11-13-2014 STC12C5608AD STC12C5620AD series MCU STC12LE5620 STC STC12C5608AD datasheet
11-13-2014 STC12C5612 STC12C5620AD series MCU STC12LE5620 STC STC12C5612 datasheet
11-13-2014 STC12C5612AD STC12C5620AD series MCU STC12LE5620 STC STC12C5612AD datasheet
11-13-2014 STC12C5616 STC12C5620AD series MCU STC12LE5620 STC STC12C5616 datasheet
11-13-2014 STC12C5616AD STC12C5620AD series MCU STC12LE5620 STC STC12C5616AD datasheet
11-13-2014 STC12C5620 STC12C5620AD series MCU STC12LE5620 STC STC12C5620 datasheet
11-13-2014 STC12C5624 STC12C5620AD series MCU STC12LE5620 STC STC12C5624 datasheet
11-13-2014 STC12C5624AD STC12C5620AD series MCU STC12LE5620 STC STC12C5624AD datasheet
11-13-2014 STC12C5628 STC12C5620AD series MCU STC12LE5620 STC STC12C5628 datasheet
11-13-2014 STC12C5628AD STC12C5620AD series MCU STC12LE5620 STC STC12C5628AD datasheet
11-13-2014 STC12C5630 STC12C5620AD series MCU STC12LE5620 STC STC12C5630 datasheet
11-13-2014 STC12C5630AD STC12C5620AD series MCU STC12LE5620 STC STC12C5630AD datasheet
11-13-2014 STC12LE5604 STC12C5620AD series MCU STC12LE5620 STC STC12LE5604 datasheet
11-13-2014 STC12LE5604AD STC12C5620AD series MCU STC12LE5620 STC STC12LE5604AD datasheet
11-13-2014 STC12LE5608 STC12C5620AD series MCU STC12LE5620 STC STC12LE5608 datasheet
11-13-2014 STC12LE5608AD STC12C5620AD series MCU STC12LE5620 STC STC12LE5608AD datasheet
11-13-2014 STC12LE5612 STC12C5620AD series MCU STC12LE5620 STC STC12LE5612 datasheet
11-13-2014 STC12LE5612AD STC12C5620AD series MCU STC12LE5620 STC STC12LE5612AD datasheet
11-13-2014 STC12LE5616 STC12C5620AD series MCU STC12LE5620 STC STC12LE5616 datasheet
11-13-2014 STC12LE5616AD STC12C5620AD series MCU STC12LE5620 STC STC12LE5616AD datasheet
11-13-2014 STC12LE5620 STC12C5620AD series MCU STC12LE5620 STC STC12LE5620 datasheet
11-13-2014 STC12LE5624 STC12C5620AD series MCU STC12LE5620 STC STC12LE5624 datasheet
11-13-2014 STC12LE5624AD STC12C5620AD series MCU STC12LE5620 STC STC12LE5624AD datasheet
11-13-2014 STC12LE5628 STC12C5620AD series MCU STC12LE5620 STC STC12LE5628 datasheet
11-13-2014 STC12LE5628AD STC12C5620AD series MCU STC12LE5620 STC STC12LE5628AD datasheet
11-13-2014 STC12LE5630 STC12C5620AD series MCU STC12LE5620 STC STC12LE5630 datasheet
11-13-2014 STC12LE5630AD STC12C5620AD series MCU STC12LE5620 STC STC12LE5630AD datasheet
11-13-2014 T-51512D121J-FW-A-AC Type No. LCD Module Technical Spec OPTREX T-51512D121J-FW-A-AC datasheet
11-13-2014 LTM121S1-T01       Samsung LTM121S1-T01 datasheet
11-13-2014 T-51866D121J-FW-A-ABN OPTREX T-51866D121J-FW-A-ABN datasheet
11-13-2014 T-52017D121J-FW-A-ABN Type No. LCD Module Technical Spec OPTREX T-52017D121J-FW-A-ABN datasheet
11-13-2014 T-52017D121J-FW-ABN TENTATIVE All information in this t OPTREX T-52017D121J-FW-ABN datasheet
11-13-2014 T-52017D121J-FW-A-AAN Type No. LCD Module Technical Spec OPTREX T-52017D121J-FW-A-AAN datasheet
11-13-2014 W9NB90 ® STW9NB90 N-CHANNEL 900V - 0.85 STMicroelectronics W9NB90 datasheet
11-13-2014 LTW-420C5 LITE-ON TECHNOLOGY CORPORATION Prop Lite-On Technology LTW-420C5 datasheet
11-13-2014 W9NB90 ® STW9NB90 N-CHANNEL 900V - 0.85 STMicroelectronics W9NB90 datasheet
11-13-2014 LTW-420C5 LITE-ON TECHNOLOGY CORPORATION Prop Lite-On Technology LTW-420C5 datasheet
11-13-2014 RA8816N RAiO RA8816N 144x65 图形/文字 L RAIO Technology RA8816N datasheet
11-13-2014 2SA2044 Ordering number : ENN6915 2SA2044 Sanyo Semicon Device 2SA2044 datasheet
11-13-2014 HCD-DZ20 www.xiaoyu163.com QQ 376315 Sony HCD-DZ20 datasheet
11-13-2014 HCD-GNZ77D www.xiaoyu163.com QQH3C7D63 Sony HCD-GNZ77D datasheet
11-13-2014 HCD-GNZ88D www.xiaoyu163.com QQH3C7D63 Sony HCD-GNZ88D datasheet
11-13-2014 HCD-GNZ55D HCD-GNZ55D SERVICE MANUAL Ver. 1.1 Sony HCD-GNZ55D datasheet
11-13-2014 AD9785 Data Sheet Dual 12-/14-/16-Bit 800 Analog Devices AD9785 datasheet
11-13-2014 AD9787 Data Sheet Dual 12-/14-/16-Bit 800 Analog Devices AD9787 datasheet
11-13-2014 AD9788 Data Sheet Dual 12-/14-/16-Bit 800 Analog Devices AD9788 datasheet
11-13-2014 HCD-DZ500F HCD-DZ500F SERVICE MANUAL AEP Mod Sony HCD-DZ500F datasheet
11-13-2014 SF5A400HD ULTRAFAST RECOVERY POWER RECTIFIER KODENSHI SF5A400HD datasheet
11-13-2014 2SC2750 INCHANGE Semiconductor isc Silicon INCHANGE 2SC2750 datasheet
11-13-2014 C2750 INCHANGE Semiconductor isc Silicon INCHANGE C2750 datasheet
11-13-2014 SD211DE-2 SD211DE-2/213DE-2/215DE-2 Vishay Si Vishay SD211DE-2 datasheet
11-13-2014 SD213DE-2 SD211DE-2/213DE-2/215DE-2 Vishay Si Vishay SD213DE-2 datasheet
11-13-2014 SD215DE-2 SD211DE-2/213DE-2/215DE-2 Vishay Si Vishay SD215DE-2 datasheet
11-13-2014 SD211DE SD211DE/SST211 Series N-Channel Lat TEMIC SD211DE datasheet
11-13-2014 SD213DE SD211DE/SST211 Series N-Channel Lat TEMIC SD213DE datasheet
11-13-2014 SD215DE SD211DE/SST211 Series N-Channel Lat TEMIC SD215DE datasheet
11-13-2014 SST211 SD211DE/SST211 Series N-Channel Lat TEMIC SST211 datasheet
11-13-2014 SST213 SD211DE/SST211 Series N-Channel Lat TEMIC SST213 datasheet
11-13-2014 SST215 SD211DE/SST211 Series N-Channel Lat TEMIC SST215 datasheet
11-13-2014 SD211DE SD-SST211/213/215 N-CHANNEL LATERAL Linear Integrated Systems SD211DE datasheet
11-13-2014 SD213DE SD-SST211/213/215 N-CHANNEL LATERAL Linear Integrated Systems SD213DE datasheet
11-13-2014 SD215DE SD-SST211/213/215 N-CHANNEL LATERAL Linear Integrated Systems SD215DE datasheet
11-13-2014 SST211 SD-SST211/213/215 N-CHANNEL LATERAL Linear Integrated Systems SST211 datasheet
11-13-2014 SST213 SD-SST211/213/215 N-CHANNEL LATERAL Linear Integrated Systems SST213 datasheet
11-13-2014 SST215 SD-SST211/213/215 N-CHANNEL LATERAL Linear Integrated Systems SST215 datasheet
11-13-2014 SD210 Universal Semiconductor SD210 datasheet
11-13-2014 SD211 Universal Semiconductor SD211 datasheet
11-13-2014 SD212 Universal Semiconductor SD212 datasheet
11-13-2014 SD213 Universal Semiconductor SD213 datasheet
11-13-2014 SD214 Universal Semiconductor SD214 datasheet
11-13-2014 SD215 Universal Semiconductor SD215 datasheet
11-13-2014 AN301 AN301 High-Speed DMOS FET Analog S TEMIC AN301 datasheet
11-13-2014 LQ121S1DG65 Technical Document LCD Specificatio SHARP Microelectronics LQ121S1DG65 datasheet
11-13-2014 LTD121C31S Toshiba Matsushita Display Technolo Toshiba LTD121C31S datasheet
11-13-2014 AA141TA04-G1 TENTATIVE All information in this t Mitsubishi AA141TA04-G1 datasheet
11-13-2014 AA141TB01 TENTATIVE All information in this t Mitsubishi AA141TB01 datasheet
11-13-2014 AA141TA01 TENTATIVE All information in this t Mitsubishi AA141TA01 datasheet
11-13-2014 LPD6803 LPD6803 datasheet General Descripti ETC LPD6803 datasheet
11-13-2014 42LG50FD Internal Use Only website:bi LG 42LG50FD datasheet
11-13-2014 HCD-DZ100 www.xiaoyu163.com QQ 376315 Sony HCD-DZ100 datasheet
11-13-2014 STDP4020 STDP4020 Features ■ Enhanced Dis STMicroelectronics STDP4020 datasheet
11-13-2014 STDP4020 Features • Enhanced DisplayPort® MegaChips STDP4020 datasheet
11-13-2014 STDP4010 Features • Enhanced DisplayPort® MegaChips STDP4010 datasheet
11-13-2014 YD1875 友达集成电路 YD1875 30W Wuxi Youda electronics YD1875 datasheet
11-13-2014 MDN2X Outline ● MDN2B 10.9 a MDN2B MD NMB-MAT MDN2X datasheet
11-13-2014 2SD2132 Rohm 2SD2132 datasheet
11-13-2014 D2132 Rohm D2132 datasheet
11-13-2014 DV300B 3 Watt DC/DC Converters Serie DV300 dev-dorsch electronic DV300B datasheet
11-13-2014 DV305-05S600B 3 Watt DC/DC Converters Serie DV300 dev-dorsch electronic DV305-05S600B datasheet
11-13-2014 DV305-12S250B 3 Watt DC/DC Converters Serie DV300 dev-dorsch electronic DV305-12S250B datasheet
11-13-2014 DV305-15S200B 3 Watt DC/DC Converters Serie DV300 dev-dorsch electronic DV305-15S200B datasheet
11-13-2014 DV305-12D125B 3 Watt DC/DC Converters Serie DV300 dev-dorsch electronic DV305-12D125B datasheet
11-13-2014 DV305-15D100B 3 Watt DC/DC Converters Serie DV300 dev-dorsch electronic DV305-15D100B datasheet
11-13-2014 DV312-05S600B 3 Watt DC/DC Converters Serie DV300 dev-dorsch electronic DV312-05S600B datasheet
11-13-2014 DV312-12S250B 3 Watt DC/DC Converters Serie DV300 dev-dorsch electronic DV312-12S250B datasheet
11-13-2014 DV312-15S200B 3 Watt DC/DC Converters Serie DV300 dev-dorsch electronic DV312-15S200B datasheet
11-13-2014 DV312-12D125B 3 Watt DC/DC Converters Serie DV300 dev-dorsch electronic DV312-12D125B datasheet
11-13-2014 DV312-15D100B 3 Watt DC/DC Converters Serie DV300 dev-dorsch electronic DV312-15D100B datasheet
11-13-2014 DV324-05S600B 3 Watt DC/DC Converters Serie DV300 dev-dorsch electronic DV324-05S600B datasheet
11-13-2014 DV324-12S250B 3 Watt DC/DC Converters Serie DV300 dev-dorsch electronic DV324-12S250B datasheet
11-13-2014 DV324-15S200B 3 Watt DC/DC Converters Serie DV300 dev-dorsch electronic DV324-15S200B datasheet
11-13-2014 DV324-12D125B 3 Watt DC/DC Converters Serie DV300 dev-dorsch electronic DV324-12D125B datasheet
11-13-2014 DV324-15D100B 3 Watt DC/DC Converters Serie DV300 dev-dorsch electronic DV324-15D100B datasheet
11-13-2014 DV348-05S600B 3 Watt DC/DC Converters Serie DV300 dev-dorsch electronic DV348-05S600B datasheet
11-13-2014 DV348-12S250B 3 Watt DC/DC Converters Serie DV300 dev-dorsch electronic DV348-12S250B datasheet
11-13-2014 DV348-15S200B 3 Watt DC/DC Converters Serie DV300 dev-dorsch electronic DV348-15S200B datasheet
11-13-2014 DV348-12D125B 3 Watt DC/DC Converters Serie DV300 dev-dorsch electronic DV348-12D125B datasheet
11-13-2014 DV348-15D100B 3 Watt DC/DC Converters Serie DV300 dev-dorsch electronic DV348-15D100B datasheet
11-13-2014 DV31BE 3 Watt DC/DC Converters Series DV31 dev-dorsch electronic DV31BE datasheet
11-13-2014 DV305-05S600BM 3 Watt DC/DC Converters Series DV31 dev-dorsch electronic DV305-05S600BM datasheet
11-13-2014 DV305-12S250BM 3 Watt DC/DC Converters Series DV31 dev-dorsch electronic DV305-12S250BM datasheet
11-13-2014 DV305-15S200BM 3 Watt DC/DC Converters Series DV31 dev-dorsch electronic DV305-15S200BM datasheet
11-13-2014 DV305-12D125BM 3 Watt DC/DC Converters Series DV31 dev-dorsch electronic DV305-12D125BM datasheet
11-13-2014 DV305-15D100BM 3 Watt DC/DC Converters Series DV31 dev-dorsch electronic DV305-15D100BM datasheet
11-13-2014 DV312-05S600BM 3 Watt DC/DC Converters Series DV31 dev-dorsch electronic DV312-05S600BM datasheet
11-13-2014 DV312-12S250BM 3 Watt DC/DC Converters Series DV31 dev-dorsch electronic DV312-12S250BM datasheet
11-13-2014 DV312-15S200BM 3 Watt DC/DC Converters Series DV31 dev-dorsch electronic DV312-15S200BM datasheet
11-13-2014 DV312-12D125BM 3 Watt DC/DC Converters Series DV31 dev-dorsch electronic DV312-12D125BM datasheet
11-13-2014 DV312-15D100BM 3 Watt DC/DC Converters Series DV31 dev-dorsch electronic DV312-15D100BM datasheet
11-13-2014 DV324-05S600BM 3 Watt DC/DC Converters Series DV31 dev-dorsch electronic DV324-05S600BM datasheet
11-13-2014 DV324-12S250BM 3 Watt DC/DC Converters Series DV31 dev-dorsch electronic DV324-12S250BM datasheet
11-13-2014 DV324-15S200BM 3 Watt DC/DC Converters Series DV31 dev-dorsch electronic DV324-15S200BM datasheet
11-13-2014 DV324-12D125BM 3 Watt DC/DC Converters Series DV31 dev-dorsch electronic DV324-12D125BM datasheet
11-13-2014 DV324-15D100BM 3 Watt DC/DC Converters Series DV31 dev-dorsch electronic DV324-15D100BM datasheet
11-13-2014 DV328-05S600BM 3 Watt DC/DC Converters Series DV31 dev-dorsch electronic DV328-05S600BM datasheet
11-13-2014 DV328-12S250BM 3 Watt DC/DC Converters Series DV31 dev-dorsch electronic DV328-12S250BM datasheet
11-13-2014 DV328-15S200BM 3 Watt DC/DC Converters Series DV31 dev-dorsch electronic DV328-15S200BM datasheet
11-13-2014 DV328-12D125BM 3 Watt DC/DC Converters Series DV31 dev-dorsch electronic DV328-12D125BM datasheet
11-13-2014 DV328-15D100BM 3 Watt DC/DC Converters Series DV31 dev-dorsch electronic DV328-15D100BM datasheet
11-13-2014 DV348-05S600BM 3 Watt DC/DC Converters Series DV31 dev-dorsch electronic DV348-05S600BM datasheet
11-13-2014 DV348-12S250BM 3 Watt DC/DC Converters Series DV31 dev-dorsch electronic DV348-12S250BM datasheet
11-13-2014 DV348-15S200BM 3 Watt DC/DC Converters Series DV31 dev-dorsch electronic DV348-15S200BM datasheet
11-13-2014 DV348-12D125BM 3 Watt DC/DC Converters Series DV31 dev-dorsch electronic DV348-12D125BM datasheet
11-13-2014 DV348-15D100BM 3 Watt DC/DC Converters Series DV31 dev-dorsch electronic DV348-15D100BM datasheet
11-13-2014 MCP3911 MCP3911 3.3V Two-Channel Analog Fro Microchip MCP3911 datasheet
11-13-2014 MCP1754 MCP1754/MCP1754S 150 mA, 16V, High Microchip MCP1754 datasheet
11-13-2014 MCP1754S MCP1754/MCP1754S 150 mA, 16V, High Microchip MCP1754S datasheet
11-13-2014 MCP1755 MCP1755/1755S 300 mA, 16V, High-Per Microchip MCP1755 datasheet
11-13-2014 MCP1755S MCP1755/1755S 300 mA, 16V, High-Per Microchip MCP1755S datasheet
11-13-2014 AT86RF232 Features • High Performance RF-C ATMEL Corporation AT86RF232 datasheet
11-13-2014 Hi3516 Hi3516 Full-HD IP-Cam SOC 用户 Hisilicon Hi3516 datasheet
11-13-2014 ICOP-6042VE ICOP-6042VE Embedded Vortex86 Ha ICOP ICOP-6042VE datasheet
11-13-2014 LM100SS1T522 SPEC No. LC00307 MODEL No. LM100SS Sharp LM100SS1T522 datasheet
11-13-2014 KAB-FI-W31S-0500RK KAB-FI-W31S-0500RK KAB-FI-W31S-0500 ES&S KAB-FI-W31S-0500RK datasheet
11-13-2014 LM24014W PREPARED BY: DATE BY: DATE SHARP Sharp Electrionic Components LM24014W datasheet
11-13-2014 KCG089HV1AA-G00 Caution 1. This Kyocera LCD module Kyocera KCG089HV1AA-G00 datasheet
11-13-2014 KCG075VG2BE-G00 Caution 1. This Kyocera LCD module Kyocera KCG075VG2BE-G00 datasheet


The site has been moved : DatasheetsPDF.com
Since 2005 - HOME - Link US - All - Privacy Policy & Contact Us -